{"data":{"norad_id":41241,"intl_designator":"2016-003A","name":"IRNSS-1E","alt_names":[],"object_type":"PAYLOAD","status":"ACTIVE","operator":null,"country":"IND","launch_date":"2016-01-20","launch_site_code":"SRILR","launch_vehicle":null,"mission":null,"orbit_class":"UNKNOWN","rcs_meters":9.9385,"size_class":null,"mass_kg":null,"dimensions":null,"purposes":["comms","nav"],"wikipedia_slug":null,"has_3d_model":false,"image_url":null,"decayed_at":null,"tle_current":{"epoch":"2026-09-19T20:04:33.026304Z","epoch_age_seconds":61435,"freshness":"FRESH","line1":"1 41241U 16003A   26262.83649336 -.00000286  00000+0  00000+0 0  9997","line2":"2 41241  33.4407  58.3825 0021595 180.7187 172.6291  1.00273367 39021","mean_motion":1.00273367,"eccentricity":0.0021595,"inclination_deg":33.4407,"raan_deg":58.3825,"arg_perigee_deg":180.7187,"mean_anomaly_deg":172.6291,"bstar":0,"rev_number":3902,"period_min":1436.0742469134,"perigee_km":35695.097694031,"apogee_km":35877.205255955,"semimajor_km":42164.288474993,"source":"CELESTRAK","updated_at":"2026-09-20T09:00:45.778644Z"}}}